彩虹 12星 (RADUGA 12)

导读 | 星芒AI

RADUGA 12 是一颗俄罗斯军用通信卫星,属于“彩虹”(Raduga)系列,主要用于支持俄罗斯国防部的战术和战略级通信需求。该卫星具备抗干扰能力和高保密性,能够在多种频段下运行,确保在复杂电磁环境中的稳定通信。它被部署在地球同步轨道,为俄罗斯军队提供安全、可靠的通信链路,增强其在全球范围内的作战指挥与协调能力。RADUGA 12 的发射进一步提升了俄罗斯在军事通信领域的自主性和技术实力。

基本信息
目录编号:
13974
目录名称:
RADUGA 12
国际标识:
1983-028A
轨道中心:
EARTH
卫星名称:
彩虹 12星
卫星全名:
彩虹 12星 (RADUGA 12)
卫星状态:
在轨 (已飞行15530 天)
发射日期:
1983-04-08 UTC
国别 :
俄罗斯(独联体) (CIS)
星等 :
--
轨道信息
数据来源 国际轨道数据 AOE轨道数据
星历时间 2025-10-14T01:27:00+0800
20小时前
查看轨道信息
2025-10-10T23:00:00+0800
3天前
查看轨道信息
半长轴 42168.373km 42168.317km
偏心率 0.0002078 0.0002343
轨道倾角 8.710° 8.714°
近地点辐角 307.392° 314.173°
升交点赤经 308.014° 308.033°
平近点角 112.060° 65.599°
近地点 35781.475km 35780.301km
远地点 35799.001km 35800.063km
周期 1436.283分钟 1436.280分钟
每日圈数 1.002588 1.00259
详细信息
平衡模式:
三轴稳定
覆盖范围:
全球
运营商:
俄罗斯国家航天集团
运营商所在国:
俄罗斯
制造商(研发单位):
普里克拉德诺伊·梅哈尼基设计局
制造商所在国:
俄罗斯联邦
使用方式:
暂无
卫星简介
彩虹卫星(Raduga, Gran)是苏联用于军事和通信目的的一系列地球静止通信卫星。彩虹卫星旨在支持军事通信、Orbita地面电视网络,并在整个东半球(极地地区除外)提供电话和电报通信。该卫星已退役。
2D轨道图
3D轨道图
轨道高度分析图
轨道倾角分析图
轨道综合分析图
查看轨道综合分析图